Lexington Weather

Lexington, Massachusetts, USA

54°F
12/10/2019 4:54pm 
  • Lexington Conditions: Light rain, Overcast
  • Temperature: 54.0°F / 12.2°CColder 0.3°F than last hour.
  • Dew Point: 52.5°FDecreased 0.2°Fsince last hour.
  • Relative Humidity: 95%Increased 1.0% since last hour.
  • Wind: Wind from SSW SSW 2 mph, 10-min avg: 3 mph, gust: 10 mph
  • Barometer: 29.70 inRising 0.02  inHg/hr Rising Slowly
  • Visibility: 10 miles
  • Rain Today: 0.05 in
  •   

Regional Weather Roundup
for Boston / Norton, MA

        
000
ASUS41 KBOX 072210
RWRBOX

REGIONAL WEATHER ROUNDUP
NATIONAL WEATHER SERVICE BOSTON/NORTON MA
500 PM EST SAT DEC 07 2019

NOTE:  "FAIR" INDICATES FEW OR NO CLOUDS BELOW 12,000 FEET WITH NO 
SIGNIFICANT WEATHER AND/OR OBSTRUCTIONS TO VISIBILITY.

MAZALL-072300-
EASTERN MASSACHUSETTS
  
CITY           SKY/WX    TMP DP  RH WIND       PRES   REMARKS
BOSTON         MOCLDY    33  13  43 W12       30.37R WCI  24          
BEVERLY        CLOUDY    30  14  51 NW7       30.35R WCI  23          
LAWRENCE       MOCLDY    28  13  53 W6        30.38R WCI  22          
BEDFORD        FAIR      27  10  49 NW9       30.36R WCI  18          
BLUE HILL        N/A     25  16  68 NW8       30.32R WCI  16          
NORWOOD        CLOUDY    32  13  45 NW6       30.37R WCI  26          
MARSHFIELD     FAIR      30  14  51 VRB5      30.36R WCI  25          
PLYMOUTH       FAIR      29  14  53 NW5       30.36R WCI  24          
TAUNTON        FAIR      31  12  45 NW3       30.36R                  
NEW BEDFORD    FAIR      31  14  49 VRB3      30.36R                  
$$

MAZALL-072300-
CAPE COD AND THE ISLANDS
  
CITY           SKY/WX    TMP DP  RH WIND       PRES   REMARKS
FALMOUTH       CLEAR     28  12  50 NW7       30.35R WCI  21          
HYANNIS        FAIR      32  14  47 NW5       30.34R WCI  27          
CHATHAM        FAIR      30  17  58 CALM      30.35R                  
PROVINCETOWN   CLOUDY    33  18  53 NW12      30.35R WCI  24          
NANTUCKET      FAIR      30  18  60 CALM      30.35R                  
MARTHAS VNYRD  FAIR      30  14  51 NW7       30.35R WCI  23          
$$
 
MAZALL-072300-
CENTRAL AND WESTERN MASSACHUSETTS
  
CITY           SKY/WX    TMP DP  RH WIND       PRES   REMARKS
WORCESTER      FAIR      23   9  55 NW8       30.32R WCI  14          
FITCHBURG      FAIR      25  11  55 NW6       30.37R WCI  18          
ORANGE         FAIR      26  11  52 CALM      30.36R                  
SPRINGFIELD    PTCLDY    25  11  54 NW9       30.36R WCI  16          
WESTFIELD      FAIR      27  10  49 NW10      30.38R WCI  17          
NORTH ADAMS    FAIR      24  12  60 W13       30.36R WCI  12          
PITTSFIELD     FAIR      24   9  52 NW12      30.32R WCI  13          
$$
 
RIZALL-072300-
RHODE ISLAND
  
CITY           SKY/WX    TMP DP  RH WIND       PRES   REMARKS
PROVIDENCE     FAIR      31  14  49 NW10      30.37R WCI  22          
NEWPORT        FAIR      33  13  43 NW13      30.36R WCI  24          
BLOCK ISLAND   FAIR      31  16  54 NW8       30.38R WCI  23          
SMITHFIELD     MOCLDY    28  15  58 NW5       30.35R WCI  23          
WESTERLY       FAIR      33  13  43 VRB3      30.38R                  
$$
 
CTZALL-072300-
CONNECTICUT
  
CITY           SKY/WX    TMP DP  RH WIND       PRES   REMARKS
BRADLEY INTL   FAIR      32  13  45 NW13G21   30.38R WCI  22          
HARTFORD       FAIR      32  14  47 NW10      30.39R WCI  24          
BRIDGEPORT     FAIR      34  16  47 NW6       30.39R WCI  29          
DANBURY        FAIR      29  16  58 CALM      30.38R                  
GROTON         FAIR      31  12  45 NW3       30.38R                  
NEW HAVEN      FAIR      37  15  40 NW9       30.38R WCI  30          
CHESTER        FAIR      30  12  47 NW7       30.36R WCI  23          
MERIDEN        FAIR      30  15  53 NW3       30.38R                  
WILLIMANTIC    FAIR      28  13  53 CALM      30.38R                  
OXFORD         FAIR      27  16  63 N8        30.35R WCI  19          
$$

MEZ002-015-021-024-NHZ003-005-008-011-012-014-VTZ005-008-072300-
NORTHERN NEW ENGLAND
  
CITY           SKY/WX    TMP DP  RH WIND       PRES   REMARKS
PORTLAND ME    MOCLDY    31  11  43 NW9       30.34R WCI  23          
BANGOR ME      FAIR      20   7  57 NW6       30.30R WCI  12          
CONCORD NH     FAIR      23  12  62 NW8       30.35R WCI  14          
MANCHESTER NH  FAIR      26  12  55 NW3       30.35R                  
NASHUA NH      FAIR      24  14  65 W5        30.37R WCI  18          
PORTSMOUTH NH  PTCLDY    25  10  51 NW6       30.34R WCI  18          
JAFFREY NH     FAIR      23  10  57 VRB3      30.31R                  
KEENE NH       FAIR      20  14  77 CALM      30.36R                  
BURLINGTON VT  LGT SNOW  23  17  78 CALM      30.38S                  
MT. WASHINGTON SNOWSHWR  -4  -4 100 W49         N/A  VSB 0   WCI -37  
$$

NYZ052-076-072300-
EASTERN NEW YORK
  
CITY           SKY/WX    TMP DP  RH WIND       PRES   REMARKS
ALBANY         FAIR      27  11  51 W8        30.42R WCI  19          
NEW YORK CITY  FAIR      37  16  42 NW15      30.40R WCI  28          
$$
 
ANZALL-072300-
MARINE OBSERVATIONS
  
STATION/POSITION TIME  TEMP    WIND        PRES    VSBY  WAVE
                       AIR SEA DIR/SP/G                  HT/PER
                 (UTC) (F)     (DEG/KT/KT) (MB)    (MI)  (FT/S)
BOSTON BUOY      2150   33 47  310/ 16/ 21 1027.0R         3/ 3
BUZZARDS BAY     2100   34     330/ 15/ 17 1027.8R
NANTUCKET SOUND  2140   34 42                N/A
MASS BAY-STELLWA 2104   33 46  320/ 16/ 23 1025.4R  1 7/8  2/ 3
ISLE OF SHOALS   2100   30     300/ 19/ 22 1026.3R
S OF BLOCK IS    2200      52                N/A           3/ 4
$$

......................KEY.........................
  SKY/WX - SKY CONDITION/PRESENT WEATHER
  TMP    - TEMPERATURE IN FAHRENHEIT
  DWPT   - DEWPOINT IN FAHRENHEIT
  RH     - RELATIVE HUMIDITY IN PERCENT
  WIND   - DIRECTION AND SPEED IN MPH
  PRES   - MEAN SEA LEVEL PRESSURE IN INCHES OF HG
  WCI    - WIND CHILL INDEX
  VSB    - VISIBILITY IN MILES
  HX     - HEAT INDEX
  TC     - TEMPERATURE IN CELSIUS
  VRB    - VARIABLE WIND DIRECTION
  N/A    - NOT AVAILABLE
  
      

Other recent Regional Weather Roundups

Tue Dec 10, 4:10pm

Tue Dec 10, 4:01pm

Tue Dec 10, 3:10pm

Tue Dec 10, 3:01pm

Tue Dec 10, 2:10pm

Tue Dec 10, 2:01pm

Tue Dec 10, 1:10pm

Tue Dec 10, 1:00pm

Tue Dec 10, 12:10pm

Tue Dec 10, 12:00pm

Tue Dec 10, 11:10am

Tue Dec 10, 11:00am

Tue Dec 10, 10:10am

Tue Dec 10, 10:00am

Tue Dec 10, 9:10am

Tue Dec 10, 9:01am

Tue Dec 10, 8:10am

Tue Dec 10, 8:00am

Tue Dec 10, 7:10am

Tue Dec 10, 7:00am

Tue Dec 10, 6:10am

Tue Dec 10, 6:00am

Tue Dec 10, 5:10am

Tue Dec 10, 5:00am

Tue Dec 10, 4:10am

Tue Dec 10, 4:00am

Tue Dec 10, 3:10am

Tue Dec 10, 3:00am

Tue Dec 10, 2:10am

Tue Dec 10, 2:01am

Tue Dec 10, 1:10am

Tue Dec 10, 1:00am

Tue Dec 10, 12:10am

Tue Dec 10, 12:01am

Mon Dec 9, 11:10pm

Mon Dec 9, 11:01pm

Mon Dec 9, 10:10pm

Mon Dec 9, 10:00pm

Mon Dec 9, 9:10pm

Mon Dec 9, 9:01pm

Mon Dec 9, 8:10pm

Mon Dec 9, 8:01pm

Mon Dec 9, 7:10pm

Mon Dec 9, 7:00pm

Mon Dec 9, 6:10pm

Mon Dec 9, 6:00pm

Mon Dec 9, 5:10pm

Mon Dec 9, 5:01pm

Mon Dec 9, 4:10pm

Mon Dec 9, 4:01pm

Mon Dec 9, 3:10pm

Mon Dec 9, 3:01pm

Mon Dec 9, 2:10pm

Mon Dec 9, 2:00pm

Mon Dec 9, 1:10pm

Mon Dec 9, 1:00pm

Mon Dec 9, 12:10pm

Mon Dec 9, 12:00pm

Mon Dec 9, 11:10am

Mon Dec 9, 11:00am

Mon Dec 9, 10:10am

Mon Dec 9, 10:00am

Mon Dec 9, 9:10am

Mon Dec 9, 9:00am

Mon Dec 9, 8:10am

Mon Dec 9, 8:00am

Mon Dec 9, 7:10am

Mon Dec 9, 7:00am

Mon Dec 9, 6:10am

Mon Dec 9, 6:00am

Mon Dec 9, 5:10am

Mon Dec 9, 5:00am

Mon Dec 9, 4:10am

Mon Dec 9, 4:00am

Mon Dec 9, 3:10am

Mon Dec 9, 3:00am

Mon Dec 9, 2:10am

Mon Dec 9, 2:00am

Mon Dec 9, 1:10am

Mon Dec 9, 1:00am

Mon Dec 9, 12:10am

Mon Dec 9, 12:00am

Sun Dec 8, 11:10pm

Sun Dec 8, 11:00pm

Sun Dec 8, 10:10pm

Sun Dec 8, 10:01pm

Sun Dec 8, 9:10pm

Sun Dec 8, 9:01pm

Sun Dec 8, 8:10pm

Sun Dec 8, 8:00pm

Sun Dec 8, 7:10pm

Sun Dec 8, 7:00pm

Sun Dec 8, 6:10pm

Sun Dec 8, 6:01pm

Sun Dec 8, 5:10pm

Sun Dec 8, 5:00pm

Sun Dec 8, 4:10pm

Sun Dec 8, 4:01pm

Sun Dec 8, 3:10pm

Sun Dec 8, 3:01pm

Sun Dec 8, 2:10pm

Sun Dec 8, 2:01pm

Sun Dec 8, 1:10pm

Sun Dec 8, 1:00pm

Sun Dec 8, 12:10pm

Sun Dec 8, 12:01pm

Sun Dec 8, 11:10am

Sun Dec 8, 11:00am

Sun Dec 8, 10:10am

Sun Dec 8, 10:01am

Sun Dec 8, 9:10am

Sun Dec 8, 9:00am

Sun Dec 8, 8:10am

Sun Dec 8, 8:00am

Sun Dec 8, 7:10am

Sun Dec 8, 7:00am

Sun Dec 8, 6:10am

Sun Dec 8, 6:00am

Sun Dec 8, 5:10am

Sun Dec 8, 5:00am

Sun Dec 8, 4:10am

Sun Dec 8, 4:00am

Sun Dec 8, 3:10am

Sun Dec 8, 3:00am

Sun Dec 8, 2:10am

Sun Dec 8, 2:00am

Sun Dec 8, 1:10am

Sun Dec 8, 1:00am

Sun Dec 8, 12:10am

Sun Dec 8, 12:01am

Sat Dec 7, 11:10pm

Sat Dec 7, 11:00pm

Sat Dec 7, 10:10pm

Sat Dec 7, 10:00pm

Sat Dec 7, 9:10pm

Sat Dec 7, 9:00pm

Sat Dec 7, 8:10pm

Sat Dec 7, 8:00pm

Sat Dec 7, 7:10pm

Sat Dec 7, 7:00pm

Sat Dec 7, 6:10pm

Sat Dec 7, 6:00pm

Sat Dec 7, 5:00pm

Meta data:

ID: 299cf213-9544-4338-8f56-9df3de56f432
Link: https://api.weather.gov/products/299cf213-9544-4338-8f56-9df3de56f432